TimeEDT,TemperatureF,Dew PointF,Humidity,Sea Level PressureIn,VisibilityMPH,Wind Direction,Wind SpeedMPH,Gust SpeedMPH,PrecipitationIn,Events,Conditions,WindDirDegrees,DateUTC
12:01 AM,36.9,26.1,65,30.31,10.0,ENE,5.8,-,N/A,,Clear,60,2013-03-18 04:01:00
12:21 AM,36.7,25.7,64,30.32,10.0,ENE,5.8,-,N/A,,Clear,70,2013-03-18 04:21:00
12:41 AM,36.7,25.7,64,30.32,10.0,ENE,5.8,-,N/A,,Clear,70,2013-03-18 04:41:00
1:01 AM,36.7,26.2,66,30.33,10.0,ENE,5.8,-,N/A,,Clear,60,2013-03-18 05:01:00
1:21 AM,36.5,26.4,67,30.33,10.0,ENE,4.6,-,N/A,,Clear,70,2013-03-18 05:21:00
1:41 AM,36.5,27.0,68,30.33,10.0,East,3.5,-,N/A,,Clear,80,2013-03-18 05:41:00
2:01 AM,36.5,27.0,68,30.34,10.0,ENE,4.6,-,N/A,,Clear,70,2013-03-18 06:01:00
2:21 AM,36.5,27.1,69,30.34,10.0,ENE,5.8,-,N/A,,Scattered Clouds,70,2013-03-18 06:21:00
2:41 AM,36.5,26.8,68,30.33,10.0,East,5.8,-,N/A,,Scattered Clouds,80,2013-03-18 06:41:00
3:01 AM,36.5,26.4,67,30.33,10.0,East,6.9,-,N/A,,Clear,90,2013-03-18 07:01:00
3:21 AM,36.5,25.7,65,30.33,10.0,East,6.9,-,N/A,,Clear,100,2013-03-18 07:21:00
3:41 AM,36.1,25.2,64,30.32,10.0,East,9.2,-,N/A,,Clear,90,2013-03-18 07:41:00
4:01 AM,36.1,24.6,63,30.32,10.0,East,6.9,-,N/A,,Scattered Clouds,90,2013-03-18 08:01:00
4:21 AM,36.0,23.4,60,30.32,10.0,East,10.4,-,N/A,,Scattered Clouds,80,2013-03-18 08:21:00
4:41 AM,35.8,23.4,61,30.32,10.0,East,8.1,-,N/A,,Scattered Clouds,90,2013-03-18 08:41:00
5:01 AM,35.8,23.0,60,30.33,10.0,East,6.9,-,N/A,,Scattered Clouds,80,2013-03-18 09:01:00
5:21 AM,35.6,23.2,61,30.33,10.0,East,8.1,-,N/A,,Clear,90,2013-03-18 09:21:00
5:41 AM,35.6,23.2,61,30.33,10.0,East,5.8,-,N/A,,Clear,80,2013-03-18 09:41:00
5:52 AM,35.6,23.0,60,30.33,10.0,East,8.1,-,N/A,,Clear,80,2013-03-18 09:52:00
6:01 AM,35.6,22.1,58,30.34,10.0,East,8.1,-,N/A,,Clear,90,2013-03-18 10:01:00
6:21 AM,35.6,22.6,59,30.35,10.0,ENE,6.9,-,N/A,,Clear,70,2013-03-18 10:21:00
6:41 AM,35.6,22.5,59,30.35,10.0,East,5.8,-,N/A,,Clear,90,2013-03-18 10:41:00
6:45 AM,35.6,21.2,56,30.36,10.0,ENE,8.1,-,N/A,,Clear,70,2013-03-18 10:45:00
7:02 AM,35.2,22.5,60,30.37,10.0,ENE,5.8,-,N/A,,Clear,70,2013-03-18 11:02:00
7:22 AM,35.1,22.3,60,30.37,10.0,East,4.6,-,N/A,,Scattered Clouds,90,2013-03-18 11:22:00
7:41 AM,35.1,23.5,63,30.37,7.0,East,5.8,-,N/A,Snow,Light Snow,90,2013-03-18 11:41:00
7:54 AM,35.6,24.8,65,30.37,5.0,East,6.9,-,N/A,Snow,Light Snow,90,2013-03-18 11:54:00
8:55 AM,33.8,30.2,87,30.36,3.0,Calm,Calm,-,N/A,Snow,Light Snow,0,2013-03-18 12:55:00
9:55 AM,33.8,32.0,93,30.34,5.0,Calm,Calm,-,N/A,Snow,Light Snow,0,2013-03-18 13:55:00
10:45 AM,35.6,32.0,87,30.31,10.0,ESE,6.9,-,N/A,,Overcast,110,2013-03-18 14:45:00
11:51 AM,37.4,32.0,81,30.29,10.0,East,9.2,-,N/A,,Mostly Cloudy,100,2013-03-18 15:51:00
12:52 PM,39.2,33.8,81,30.23,10.0,ESE,10.4,17.3,N/A,,Overcast,120,2013-03-18 16:52:00
1:50 PM,39.2,35.6,87,30.19,10.0,ESE,9.2,16.1,N/A,,Overcast,120,2013-03-18 17:50:00
2:52 PM,41.0,35.6,81,30.16,10.0,East,10.4,-,N/A,,Overcast,100,2013-03-18 18:52:00
3:52 PM,57.2,57.2,100,30.13,2.5,East,10.4,-,N/A,,Overcast,100,2013-03-18 19:52:00
4:08 PM,39.2,39.2,100,30.12,1.5,East,9.2,16.1,N/A,Rain,Light Rain,90,2013-03-18 20:08:00
4:53 PM,39.2,39.2,100,30.08,2.0,East,10.4,-,N/A,,Drizzle,100,2013-03-18 20:53:00
5:53 PM,39.2,39.2,100,30.05,4.0,East,5.8,-,N/A,Rain,Light Rain,90,2013-03-18 21:53:00
6:53 PM,39.2,39.2,100,30.04,1.5,NW,6.9,-,N/A,Rain,Light Rain,310,2013-03-18 22:53:00
7:33 PM,39.2,39.2,100,30.03,4.0,North,3.5,-,N/A,Rain,Light Rain,360,2013-03-18 23:33:00
7:53 PM,39.2,39.2,100,30.02,3.0,North,3.5,-,N/A,Rain,Light Rain,10,2013-03-18 23:53:00
8:53 PM,39.2,39.2,100,30.00,3.0,North,4.6,-,N/A,Rain,Rain,350,2013-03-19 00:53:00
11:03 PM,38.8,38.8,100,29.93,7.0,NW,4.6,-,N/A,,Overcast,320,2013-03-19 03:03:00
11:23 PM,39.2,39.2,100,29.93,5.0,NW,4.6,-,N/A,,Drizzle,310,2013-03-19 03:23:00
11:44 PM,39.2,39.2,100,29.90,3.0,Calm,Calm,-,N/A,,Overcast,0,2013-03-19 03:44:00